Cedar City, UT

9:06 PM MDT on September 28, 2016 (GMT -0600)
Cedar City Regional

Weather History for KCDC - June, 2013

Change the Weather History Date:

Monday, June 10, 2013

  Actual Average Record
Temperature  
Mean Temperature 74 °F 64 °F  
Max Temperature 90 °F 81 °F 93 °F (1996)
Min Temperature 57 °F 46 °F 28 °F (2002)
Degree Days  
Heating Degree Days 0 4  
Month to date heating degree days 8 45  
Since 1 June heating degree days 8 45  
Since 1 July heating degree days 6131 6224  
Cooling Degree Days 9 2  
Month to date cooling degree days 41 16  
Year to date cooling degree days 43 24  
Since 1 June cooling degree days 41 16  
Growing Degree Days 25 (Base 50)    
Moisture  
Dew Point 18 °F    
Average Humidity 16    
Maximum Humidity 27    
Minimum Humidity 4    
Precipitation  
Precipitation 0.00 in 0.02 in 0.88 in (1957)
Month to date precipitation 0.00 0.23  
Year to date precipitation 4.06 5.27  
Sea Level Pressure  
Sea Level Pressure 29.74 in    
Wind  
Wind Speed 12 mph (SSW)    
Max Wind Speed 32 mph    
Max Gust Speed 46 mph    
Visibility 10 miles    
Events      
T = Trace of Precipitation, MM = Missing Value Source: NWS Daily Summary

Daily Weather History Graph

Daily Weather History Graph

Search for Another Location

Airport or City:

Trip Planner

Search our weather history database for the weather conditions in past years. The results will help you decide how hot, cold, wet, or windy it might be!

Date:

Astronomy

Jun. 10, 2013 Rise Set
Actual Time 6:10 AM MDT 8:53 PM MDT
Civil Twilight 5:39 AM MDT 9:24 PM MDT
Nautical Twilight 5:00 AM MDT 10:03 PM MDT
Astronomical Twilight 4:16 AM MDT 10:47 PM MDT
Moon 8:00 AM MDT (6/10) 10:25 PM MDT (6/10)
Length of Visible Light 15h 45m
Length of Day
14h 43m
Waxing Crescent, 4% of the Moon is Illuminated
Jun 10
Waxing Crescent
Jun 16
First Quarter
Jun 23
Full
Jun 29
Last Quarter
Jul 8
New

Hourly Weather History & Observations

Time (MDT) Temp. Dew Point Humidity Pressure Visibility Wind Dir Wind Speed Gust Speed Precip Events Conditions
12:53 AM 69.1 °F 21.9 °F 17% 29.77 in 10.0 mi South 3.5 mph - N/A   Clear
1:53 AM 71.1 °F 21.9 °F 16% 29.76 in 10.0 mi SW 12.7 mph - N/A   Clear
2:53 AM 69.1 °F 21.0 °F 16% 29.75 in 10.0 mi SSW 3.5 mph - N/A   Clear
3:53 AM 66.0 °F 23.0 °F 20% 29.76 in 10.0 mi SW 4.6 mph - N/A   Clear
4:53 AM 64.0 °F 21.0 °F 19% 29.76 in 10.0 mi WSW 6.9 mph - N/A   Clear
5:53 AM 64.0 °F 21.9 °F 20% 29.78 in 10.0 mi WNW 3.5 mph - N/A   Clear
6:53 AM 61.0 °F 27.0 °F 27% 29.80 in 9.0 mi ENE 5.8 mph - N/A   Clear
7:53 AM 61.0 °F 28.0 °F 29% 29.82 in 10.0 mi Calm Calm - N/A   Clear
8:53 AM 75.9 °F 23.0 °F 14% 29.80 in 10.0 mi SW 10.4 mph - N/A   Clear
9:53 AM 81.0 °F 18.0 °F 10% 29.79 in 10.0 mi South 13.8 mph 24.2 mph N/A   Clear
10:53 AM 84.0 °F 15.1 °F 8% 29.79 in 10.0 mi SSW 18.4 mph 28.8 mph N/A   Clear
11:53 AM 86.0 °F 12.9 °F 7% 29.77 in 10.0 mi SW 16.1 mph 27.6 mph N/A   Clear
12:53 PM 88.0 °F 14.0 °F 6% 29.75 in 10.0 mi SSW 20.7 mph 34.5 mph N/A   Clear
1:53 PM 88.0 °F 12.9 °F 6% 29.74 in 10.0 mi SSW 24.2 mph 35.7 mph N/A   Clear
2:53 PM 89.1 °F 5.0 °F 4% 29.72 in 10.0 mi South 26.5 mph 38.0 mph N/A   Clear
3:53 PM 89.1 °F 10.9 °F 5% 29.70 in 10.0 mi SSW 25.3 mph 38.0 mph N/A   Clear
4:53 PM 88.0 °F 12.0 °F 6% 29.69 in 10.0 mi SW 21.9 mph 41.4 mph N/A   Clear
5:53 PM 87.1 °F 14.0 °F 7% 29.68 in 10.0 mi SSW 18.4 mph 38.0 mph N/A   Clear
6:53 PM 84.9 °F 16.0 °F 8% 29.68 in 10.0 mi SSW 26.5 mph 35.7 mph N/A   Clear
7:53 PM 82.0 °F 18.0 °F 9% 29.68 in 10.0 mi SW 21.9 mph 33.4 mph N/A   Clear
8:53 PM 77.0 °F 19.0 °F 11% 29.66 in 10.0 mi SSW 12.7 mph 20.7 mph N/A   Clear
9:53 PM 75.9 °F 19.0 °F 12% 29.66 in 10.0 mi South 13.8 mph 20.7 mph N/A   Clear
10:53 PM 75.0 °F 21.0 °F 13% 29.67 in 10.0 mi SSW 15.0 mph 28.8 mph N/A   Clear
11:53 PM 73.9 °F 21.0 °F 14% 29.67 in 10.0 mi SSW 15.0 mph 28.8 mph N/A   Clear